VIV636 MMAA-MMMX

Flight info

Callsign VIV636
Flight time 0h 37m
Altitude 26000
Route ALNUS1B ALNUS UT117 ESPOS ESPOS3A
Aircraft A20N/M-SDE2E3FGHIRWXY/LB1

Departure

Time 2026-05-08 02:17
Airport General Juan N. Álvarez International Airport (MMAA)

Arrival

Time 2026-05-08 02:54
Airport Mexico City Benito Juárez International Airport (MMMX)
Time Latitude Longitude Altitude Speed Heading
2026-05-08 01:48 16.76138 -99.75558 26 ft 0 kts 17°
2026-05-08 02:03 16.76135 -99.75558 26 ft 2 kts 18°
2026-05-08 02:03 16.76121 -99.75564 26 ft 2 kts 18°
2026-05-08 02:04 16.76106 -99.75568 26 ft 2 kts 18°
2026-05-08 02:04 16.76092 -99.75573 26 ft 2 kts 18°
2026-05-08 02:04 16.76078 -99.75578 26 ft 2 kts 18°
2026-05-08 02:04 16.76063 -99.75583 26 ft 2 kts 18°
2026-05-08 02:05 16.76049 -99.75588 26 ft 2 kts 39°
2026-05-08 02:05 16.76041 -99.75603 26 ft 2 kts 87°
2026-05-08 02:05 16.76042 -99.75611 26 ft 0 kts 107°
2026-05-08 02:09 16.76041 -99.75607 26 ft 1 kts 103°
2026-05-08 02:09 16.76038 -99.75593 26 ft 2 kts 100°
2026-05-08 02:09 16.76033 -99.75567 26 ft 4 kts 107°
2026-05-08 02:09 16.76022 -99.75528 26 ft 6 kts 105°
2026-05-08 02:10 16.76008 -99.75474 26 ft 8 kts 107°
2026-05-08 02:10 16.75987 -99.75406 26 ft 10 kts 108°
2026-05-08 02:10 16.75953 -99.75362 26 ft 8 kts 154°
2026-05-08 02:10 16.75896 -99.75327 26 ft 10 kts 122°
2026-05-08 02:11 16.75868 -99.75251 26 ft 12 kts 108°
2026-05-08 02:11 16.75840 -99.75161 26 ft 13 kts 108°
2026-05-08 02:11 16.75809 -99.75063 26 ft 14 kts 108°
2026-05-08 02:11 16.75777 -99.74961 25 ft 15 kts 108°
2026-05-08 02:12 16.75743 -99.74854 25 ft 15 kts 108°
2026-05-08 02:12 16.75709 -99.74746 25 ft 15 kts 108°
2026-05-08 02:12 16.75675 -99.74635 25 ft 16 kts 108°
2026-05-08 02:12 16.75640 -99.74525 25 ft 16 kts 108°
2026-05-08 02:13 16.75605 -99.74412 25 ft 16 kts 108°
2026-05-08 02:13 16.75569 -99.74300 25 ft 16 kts 108°
2026-05-08 02:13 16.75533 -99.74186 25 ft 16 kts 108°
2026-05-08 02:13 16.75498 -99.74071 25 ft 16 kts 107°
2026-05-08 02:14 16.75462 -99.73955 25 ft 16 kts 108°
2026-05-08 02:14 16.75425 -99.73837 23 ft 17 kts 108°
2026-05-08 02:14 16.75387 -99.73715 24 ft 17 kts 108°
2026-05-08 02:14 16.75350 -99.73599 25 ft 16 kts 108°
2026-05-08 02:15 16.75314 -99.73486 25 ft 16 kts 108°
2026-05-08 02:15 16.75280 -99.73376 24 ft 10 kts 110°
2026-05-08 02:15 16.75223 -99.73331 24 ft 11 kts 182°
2026-05-08 02:15 16.75181 -99.73341 25 ft 0 kts 198°
2026-05-08 02:16 16.75156 -99.73349 25 ft 12 kts 198°
2026-05-08 02:16 16.75099 -99.73381 25 ft 0 kts 240°
2026-05-08 02:16 16.75107 -99.73460 25 ft 30 kts 287°
2026-05-08 02:17 16.75250 -99.73918 25 ft 99 kts 288°
2026-05-08 02:17 16.75525 -99.74799 26 ft 154 kts 288°
2026-05-08 02:17 16.75887 -99.75967 262 ft 177 kts 288°
2026-05-08 02:17 16.76261 -99.77184 853 ft 179 kts 288°
2026-05-08 02:18 16.76648 -99.78426 1513 ft 180 kts 288°
2026-05-08 02:18 16.77039 -99.79667 2020 ft 187 kts 288°
2026-05-08 02:18 16.77458 -99.80993 2362 ft 203 kts 289°
2026-05-08 02:18 16.77921 -99.82457 2711 ft 220 kts 289°
2026-05-08 02:19 16.78428 -99.84058 2993 ft 243 kts 289°
2026-05-08 02:19 16.78974 -99.85781 3409 ft 260 kts 290°
2026-05-08 02:19 16.79870 -99.87449 3970 ft 270 kts 315°
2026-05-08 02:19 16.81449 -99.88467 4770 ft 270 kts 342°
2026-05-08 02:20 16.83252 -99.88969 5439 ft 274 kts 345°
2026-05-08 02:20 16.85140 -99.89465 5852 ft 277 kts 345°
2026-05-08 02:20 16.86995 -99.89962 6027 ft 278 kts 344°
2026-05-08 02:20 16.88875 -99.90477 6030 ft 278 kts 344°
2026-05-08 02:21 16.90748 -99.90995 6035 ft 278 kts 344°
2026-05-08 02:21 16.92647 -99.91524 6042 ft 278 kts 344°
2026-05-08 02:21 16.94505 -99.92020 6039 ft 279 kts 349°
2026-05-08 02:21 16.96456 -99.91939 6034 ft 281 kts 17°
2026-05-08 02:22 16.98191 -99.91002 6362 ft 288 kts 32°
2026-05-08 02:22 16.99884 -99.89896 7130 ft 288 kts 31°
2026-05-08 02:22 17.01603 -99.88792 7903 ft 289 kts 31°
2026-05-08 02:22 17.03340 -99.87686 8571 ft 292 kts 32°
2026-05-08 02:23 17.05081 -99.86583 9241 ft 296 kts 32°
2026-05-08 02:23 17.06836 -99.85475 9881 ft 298 kts 32°
2026-05-08 02:23 17.08620 -99.84349 10501 ft 302 kts 32°
2026-05-08 02:23 17.10457 -99.83187 10839 ft 317 kts 32°
2026-05-08 02:24 17.12406 -99.81963 11113 ft 333 kts 32°
2026-05-08 02:24 17.14434 -99.80691 11357 ft 348 kts 32°
2026-05-08 02:24 17.16528 -99.79373 11763 ft 356 kts 32°
2026-05-08 02:24 17.18682 -99.78021 12374 ft 358 kts 32°
2026-05-08 02:25 17.20938 -99.76965 12983 ft 362 kts 19°
2026-05-08 02:25 17.23436 -99.76463 13562 ft 368 kts
2026-05-08 02:25 17.26024 -99.76433 14105 ft 373 kts
2026-05-08 02:25 17.28643 -99.76498 14605 ft 377 kts
2026-05-08 02:26 17.31300 -99.76575 15114 ft 382 kts
2026-05-08 02:26 17.33971 -99.76648 15630 ft 386 kts
2026-05-08 02:26 17.36651 -99.76714 16123 ft 390 kts
2026-05-08 02:26 17.39369 -99.76777 16616 ft 393 kts
2026-05-08 02:27 17.42131 -99.76838 17096 ft 397 kts
2026-05-08 02:27 17.44916 -99.76897 17566 ft 401 kts
2026-05-08 02:27 17.47728 -99.76957 18027 ft 405 kts
2026-05-08 02:27 17.50547 -99.77016 18498 ft 408 kts
2026-05-08 02:28 17.53420 -99.77077 18953 ft 411 kts
2026-05-08 02:28 17.56292 -99.77138 19375 ft 415 kts
2026-05-08 02:28 17.59170 -99.77200 19777 ft 419 kts
2026-05-08 02:28 17.62146 -99.77264 19987 ft 429 kts 360°
2026-05-08 02:29 17.65129 -99.77331 20500 ft 429 kts 360°
2026-05-08 02:29 17.68113 -99.77397 21044 ft 428 kts 360°
2026-05-08 02:29 17.71105 -99.77462 21533 ft 429 kts 360°
2026-05-08 02:29 17.74095 -99.77526 22093 ft 428 kts 360°
2026-05-08 02:30 17.77066 -99.77591 22639 ft 428 kts 359°
2026-05-08 02:30 17.80056 -99.77684 23184 ft 428 kts 358°
2026-05-08 02:30 17.82998 -99.77838 23760 ft 426 kts 357°
2026-05-08 02:30 17.85977 -99.78010 24370 ft 424 kts 357°
2026-05-08 02:31 17.88899 -99.78177 24911 ft 423 kts 357°
2026-05-08 02:31 17.91869 -99.78343 25180 ft 430 kts 357°
2026-05-08 02:31 17.94898 -99.78511 25359 ft 439 kts 357°
2026-05-08 02:31 17.97985 -99.78680 25531 ft 447 kts 357°
2026-05-08 02:32 18.01131 -99.78849 25697 ft 455 kts 357°
2026-05-08 02:32 18.04332 -99.79022 25860 ft 463 kts 357°
2026-05-08 02:32 18.07589 -99.79195 26012 ft 470 kts 357°
2026-05-08 02:32 18.10896 -99.79372 26082 ft 479 kts 356°
2026-05-08 02:33 18.14290 -99.79554 26091 ft 485 kts 356°
2026-05-08 02:33 18.17663 -99.79734 26117 ft 486 kts 356°
2026-05-08 02:33 18.21041 -99.79914 26151 ft 487 kts 356°
2026-05-08 02:33 18.24416 -99.80096 26182 ft 487 kts 356°
2026-05-08 02:34 18.27813 -99.80278 26207 ft 487 kts 356°
2026-05-08 02:34 18.31201 -99.80460 26226 ft 488 kts 356°
2026-05-08 02:34 18.34599 -99.80642 26239 ft 487 kts 356°
2026-05-08 02:34 18.38018 -99.80825 26270 ft 487 kts 356°
2026-05-08 02:35 18.41412 -99.81007 26285 ft 488 kts 356°
2026-05-08 02:35 18.44808 -99.81190 26287 ft 487 kts 356°
2026-05-08 02:35 18.48168 -99.81370 26294 ft 487 kts 356°
2026-05-08 02:35 18.51594 -99.81554 26315 ft 487 kts 356°
2026-05-08 02:36 18.54943 -99.81733 26325 ft 487 kts 356°
2026-05-08 02:36 18.58365 -99.81917 26341 ft 487 kts 356°
2026-05-08 02:36 18.61746 -99.82098 26343 ft 487 kts 356°
2026-05-08 02:36 18.65137 -99.82282 26349 ft 487 kts 357°
2026-05-08 02:37 18.68522 -99.82122 26342 ft 487 kts 12°
2026-05-08 02:37 18.71687 -99.80887 26363 ft 486 kts 31°
2026-05-08 02:37 18.74338 -99.78696 26361 ft 483 kts 49°
2026-05-08 02:37 18.76236 -99.75819 26192 ft 480 kts 65°
2026-05-08 02:38 18.77571 -99.72629 25964 ft 479 kts 69°
2026-05-08 02:38 18.78881 -99.69383 25725 ft 480 kts 69°
2026-05-08 02:38 18.80192 -99.66173 25474 ft 476 kts 69°
2026-05-08 02:38 18.81510 -99.62997 25059 ft 466 kts 68°
2026-05-08 02:39 18.82804 -99.59911 24676 ft 457 kts 68°
2026-05-08 02:39 18.84082 -99.56882 24300 ft 448 kts 69°
2026-05-08 02:39 18.85327 -99.53939 24051 ft 436 kts 69°
2026-05-08 02:39 18.86546 -99.51058 23804 ft 425 kts 69°
2026-05-08 02:40 18.87738 -99.48236 23539 ft 416 kts 69°
2026-05-08 02:40 18.88904 -99.45476 23063 ft 415 kts 69°
2026-05-08 02:40 18.90078 -99.42691 22416 ft 418 kts 69°
2026-05-08 02:40 18.91264 -99.39877 21695 ft 421 kts 69°
2026-05-08 02:41 18.92454 -99.37048 20936 ft 426 kts 69°
2026-05-08 02:41 18.93652 -99.34203 20157 ft 429 kts 68°
2026-05-08 02:41 18.94854 -99.31344 19353 ft 419 kts 68°
2026-05-08 02:41 18.95991 -99.28601 18664 ft 404 kts 70°
2026-05-08 02:42 18.96546 -99.25809 18167 ft 380 kts 94°
2026-05-08 02:42 18.95944 -99.23239 17972 ft 349 kts 121°
2026-05-08 02:42 18.94440 -99.21361 17976 ft 323 kts 140°
2026-05-08 02:42 18.92790 -99.19774 17950 ft 313 kts 136°
2026-05-08 02:43 18.91344 -99.18127 17945 ft 304 kts 132°
2026-05-08 02:43 18.90004 -99.16390 17938 ft 303 kts 129°
2026-05-08 02:43 18.88876 -99.14520 17925 ft 304 kts 116°
2026-05-08 02:43 18.88261 -99.12409 17885 ft 307 kts 96°
2026-05-08 02:44 18.88537 -99.10172 17534 ft 309 kts 68°
2026-05-08 02:44 18.89697 -99.08300 17278 ft 305 kts 43°
2026-05-08 02:44 18.91486 -99.07105 17065 ft 304 kts 18°
2026-05-08 02:44 18.93534 -99.06593 16902 ft 305 kts 11°
2026-05-08 02:45 18.95631 -99.06162 16667 ft 304 kts 11°
2026-05-08 02:45 18.97710 -99.05726 16394 ft 302 kts 11°
2026-05-08 02:45 18.99746 -99.05285 16106 ft 301 kts 11°
2026-05-08 02:45 19.01810 -99.04829 15800 ft 299 kts 11°
2026-05-08 02:46 19.03845 -99.04373 15495 ft 298 kts 11°
2026-05-08 02:46 19.05893 -99.03912 15202 ft 297 kts 11°
2026-05-08 02:46 19.07892 -99.03463 14915 ft 296 kts 12°
2026-05-08 02:46 19.09927 -99.03004 14613 ft 295 kts 12°
2026-05-08 02:47 19.11924 -99.02554 14317 ft 294 kts 12°
2026-05-08 02:47 19.13923 -99.02104 14125 ft 287 kts 12°
2026-05-08 02:47 19.15864 -99.01666 14108 ft 284 kts 11°
2026-05-08 02:47 19.17810 -99.01519 13953 ft 284 kts 347°
2026-05-08 02:48 19.19582 -99.02388 13587 ft 279 kts 317°
2026-05-08 02:48 19.20927 -99.03816 13278 ft 276 kts 310°
2026-05-08 02:48 19.22212 -99.05321 12961 ft 276 kts 311°
2026-05-08 02:48 19.23548 -99.06801 12634 ft 276 kts 311°
2026-05-08 02:49 19.24821 -99.08330 12301 ft 275 kts 307°
2026-05-08 02:49 19.25986 -99.09934 11940 ft 275 kts 306°
2026-05-08 02:49 19.27117 -99.11529 11560 ft 270 kts 306°
2026-05-08 02:49 19.28236 -99.13098 11195 ft 264 kts 306°
2026-05-08 02:50 19.29337 -99.14633 10840 ft 257 kts 306°
2026-05-08 02:50 19.30402 -99.16112 10500 ft 251 kts 307°
2026-05-08 02:50 19.31457 -99.17582 10185 ft 249 kts 307°
2026-05-08 02:50 19.32659 -99.18864 9962 ft 241 kts 330°
2026-05-08 02:51 19.34195 -99.19448 9803 ft 235 kts 357°
2026-05-08 02:51 19.35766 -99.19266 9701 ft 218 kts 20°
2026-05-08 02:51 19.37050 -99.18487 9296 ft 209 kts 46°
2026-05-08 02:51 19.37890 -99.17301 9065 ft 193 kts 59°
2026-05-08 02:52 19.38514 -99.16125 8968 ft 172 kts 62°
2026-05-08 02:52 19.39066 -99.15071 8740 ft 160 kts 60°
2026-05-08 02:52 19.39621 -99.14062 8556 ft 157 kts 58°
2026-05-08 02:52 19.40180 -99.13068 8373 ft 157 kts 58°
2026-05-08 02:53 19.40743 -99.12069 8184 ft 157 kts 57°
2026-05-08 02:53 19.41299 -99.11079 7974 ft 156 kts 58°
2026-05-08 02:53 19.41849 -99.10099 7762 ft 156 kts 57°
2026-05-08 02:53 19.42399 -99.09112 7576 ft 153 kts 55°
2026-05-08 02:54 19.42936 -99.08138 7401 ft 151 kts 51°
2026-05-08 02:54 19.43462 -99.07239 7339 ft 123 kts 59°
2026-05-08 02:54 19.43808 -99.06622 7337 ft 65 kts 62°
2026-05-08 02:54 19.44005 -99.06299 7331 ft 34 kts 40°
2026-05-08 02:55 19.44123 -99.06211 7332 ft 8 kts 27°
2026-05-08 02:55 19.44177 -99.06186 7331 ft 10 kts 21°
2026-05-08 02:55 19.44282 -99.06165 7333 ft 18 kts
2026-05-08 02:56 19.44387 -99.06197 7335 ft 15 kts 305°
2026-05-08 02:56 19.44420 -99.06293 7335 ft 0 kts 275°